Location: Branche des Alpilles
(43.6087°N, 4.6976°E)
Time: 07:45:08
(UTC+00:00)

SAR-Lupe-1 - Pass Details

Date: 30 November 2020
Orbit: 481 x 485 km, 98.2° (Epoch: 22 January)

Event Time Altitude Azimuth Distance (km) Brightness Sun altitude
Exits shadow 18:07:10 53° 354° (N) 598 4.4 -21.4°
Maximum altitude 18:07:53 75° 285° (WNW) 503 4.1 -21.5°
Drops below altitude 10° 18:11:26 10° 200° (SSW) 1,653 7.1 -22.1°
Sets 18:13:28 0° 199° (SSW) 2,527 8.1 -22.5°
